Location: Liscomb Game Sanctuary
(45.1633°N, 62.5575°W)
Time: 09:46:20
(UTC-04:00)

Amateur Radio Satellites - All Passes

Search period start: 20 December 2014 09:16
Search period end: 21 December 2014 09:16
Location: Liscomb Game Sanctuary, 45.1633°N, 62.5575°W

Satellite Date Start Highest point End Downlink Frequencies (MHz)
Time Altitude Azimuth
MaSat-1 20 Dec 09:33:19 09:35:26 32° 301° (WNW) 09:37:29 437.345
HUMSAT D 20 Dec 09:36:17 09:38:19 13° 89° (E) 09:40:22 437.325/437.525
UNISAT 6 20 Dec 09:36:25 09:40:40 53° 72° (ENE) 09:45:03 437.425
DOVE 4 20 Dec 09:36:59 09:41:44 81° 103° (ESE) 09:46:45 437.250
Oscar 11 20 Dec 09:37:01 09:41:15 46° 99° (E) 09:45:26 145.826/435.025
RS-15 20 Dec 09:41:24 09:43:58 11° 93° (E) 09:46:31 29.354- 29.394
DUCHIFAT 1 20 Dec 09:43:09 09:47:04 40° 70° (ENE) 09:51:01 145.980
BUGSAT 1 20 Dec 09:44:56 09:48:37 33° 69° (ENE) 09:52:17 437.445
UKube-1 20 Dec 09:45:18 09:49:24 40° 99° (E) 09:53:28 .
HO-68 20 Dec 09:50:13 09:57:20 70° 291° (WNW) 10:04:24 435.675
DANDE 20 Dec 09:51:17 09:54:46 67° 97° (E) 09:59:29 436.750
CUBEBUG 2 20 Dec 09:53:02 09:57:29 46° 99° (E) 10:02:02 437.445
AAUSAT CUBESAT 2 20 Dec 09:55:44 09:59:54 56° 287° (WNW) 10:04:02 437.432
YUBILEINY 20 Dec 09:56:04 10:03:49 34° 67° (ENE) 10:11:31 435.215
QB50P2 20 Dec 09:56:06 10:00:13 56° 73° (ENE) 10:04:22 145.880/145.840
POLYITAN 1 20 Dec 10:04:41 10:08:52 70° 74° (ENE) 10:13:05 437.675
ZACube-1 20 Dec 10:05:55 10:10:16 45° 99° (E) 10:14:40 437.345
CINEMA 3 20 Dec 10:06:14 10:10:57 85° 284° (WNW) 10:15:51 145.822/145.860
VELOX 1 20 Dec 10:06:33 10:10:11 24° 95° (E) 10:13:47 145.980
NANOSAT C BR1 20 Dec 10:07:21 10:11:32 74° 74° (ENE) 10:15:45 145.865
CANX-2 20 Dec 10:07:58 10:11:36 27° 293° (WNW) 10:15:13 2200.000
ANTELSAT 20 Dec 10:08:11 10:12:33 73° 258° (WSW) 10:17:04 437.575/2403.000
ESTCUBE 1 20 Dec 10:09:16 10:10:26 11° 88° (E) 10:11:36 437.505/2401.250
BRITE-PL 20 Dec 10:18:49 10:22:33 25° 293° (WNW) 10:26:31 437.365/2234.400
QB50P1 20 Dec 10:21:40 10:25:53 78° 257° (WSW) 10:30:07 145.935-145.965
COMPASS 1 20 Dec 10:31:22 10:34:43 23° 294° (WNW) 10:38:02 437.405
UWE-3 20 Dec 10:32:12 10:36:48 84° 284° (WNW) 10:41:28 435.000/436.395/437.385
FUNcube-1 20 Dec 10:32:43 10:37:16 84° 103° (ESE) 10:41:51 145.935
O/OREOS (USA 219) 20 Dec 10:35:20 10:39:52 87° 247° (WSW) 10:44:24 437.305
SEEDS 20 Dec 10:36:37 10:39:32 18° 297° (WNW) 10:42:26 437.485
CUTE 1.7 + AOD 2 20 Dec 10:39:45 10:42:16 15° 298° (WNW) 10:44:45 437.475
TIGRISAT 20 Dec 10:44:43 10:48:35 31° 264° (W) 10:52:35 435.000
CUSAT 1 20 Dec 10:45:24 10:48:47 28° 295° (WNW) 10:53:06 437.405
GOMX 1 20 Dec 10:48:19 10:51:34 19° 296° (WNW) 10:54:56 467.674
AISAT 20 Dec 10:48:55 10:53:21 69° 102° (ESE) 10:57:47 437.250
DX 1 20 Dec 10:49:49 10:53:55 42° 290° (WNW) 10:58:00 434.975-435.025
DELFI C3 20 Dec 10:50:22 10:54:06 33° 291° (WNW) 10:57:48 145.870
POPSAT HIP 1 20 Dec 10:50:43 10:54:38 38° 262° (W) 10:58:35 437.405
50 SAT 20 Dec 10:51:41 10:55:50 65° 101° (E) 10:59:58 437.505
CUBEBUG 1 20 Dec 10:56:55 11:00:48 31° 96° (E) 11:04:40 437.445
HUMSAT D 20 Dec 11:10:15 11:14:32 65° 286° (WNW) 11:18:50 437.325/437.525
Oscar 11 20 Dec 11:13:58 11:17:06 20° 296° (WNW) 11:20:13 145.826/435.025
Oscar 19 20 Dec 11:14:53 11:17:39 15° 57° (ENE) 11:20:26 437.125/150
UNISAT 6 20 Dec 11:15:04 11:17:50 16° 270° (W) 11:20:38 437.425
DOVE 4 20 Dec 11:16:32 11:18:57 14° 299° (WNW) 11:21:25 437.250
DUCHIFAT 1 20 Dec 11:20:02 11:23:06 20° 267° (W) 11:26:11 145.980
BUGSAT 1 20 Dec 11:20:59 11:24:12 22° 266° (W) 11:27:24 437.445
UKube-1 20 Dec 11:22:00 11:25:19 22° 296° (WNW) 11:28:38 .
CUBEBUG 2 20 Dec 11:30:24 11:33:54 22° 295° (WNW) 11:37:28 437.445
QB50P2 20 Dec 11:34:14 11:36:30 14° 270° (W) 11:38:47 145.880/145.840
DANDE 20 Dec 11:37:52 11:39:21 12° 306° (NW) 11:40:58 436.750
HO-68 20 Dec 11:39:45 11:43:48 16° 312° (NW) 11:47:52 435.675
VELOX 1 20 Dec 11:42:48 11:46:50 35° 292° (WNW) 11:50:51 145.980
ZACube-1 20 Dec 11:42:58 11:46:22 21° 295° (WNW) 11:49:47 437.345
RS-15 20 Dec 11:43:03 11:53:37 58° 115° (ESE) 12:04:12 29.354- 29.394
ESTCUBE 1 20 Dec 11:43:22 11:47:54 81° 285° (WNW) 11:52:22 437.505/2401.250
POLYITAN 1 20 Dec 11:43:56 11:45:18 11° 271° (W) 11:46:40 437.675
CINEMA 3 20 Dec 11:45:48 11:47:28 12° 301° (WNW) 11:49:10 145.822/145.860
NANOSAT C BR1 20 Dec 11:46:57 11:47:56 11° 272° (W) 11:48:55 145.865
YUBILEINY 20 Dec 11:52:37 12:01:04 58° 269° (W) 12:09:30 435.215
TISAT 1 20 Dec 12:04:32 12:08:34 42° 99° (E) 12:12:35 437.305
SPROUT 20 Dec 12:06:27 12:10:33 42° 98° (E) 12:14:38 437.525
FUNcube-1 20 Dec 12:11:05 12:12:58 13° 300° (WNW) 12:14:52 145.935
UWE-3 20 Dec 12:11:20 12:12:37 11° 302° (WNW) 12:13:55 435.000/436.395/437.385
AISAT 20 Dec 12:27:03 12:29:27 15° 300° (WNW) 12:31:51 437.250
50 SAT 20 Dec 12:28:30 12:30:33 14° 299° (WNW) 12:32:36 437.505
CUBEBUG 1 20 Dec 12:33:27 12:37:05 26° 294° (WNW) 12:40:41 437.445
BEESAT 2 20 Dec 12:34:32 12:36:52 15° 110° (ESE) 12:39:14 435.950
SWISSCUBE 20 Dec 12:40:35 12:43:54 19° 92° (E) 12:47:12 437.505
ITUPSAT 1 20 Dec 12:41:04 12:44:10 17° 91° (E) 12:47:15 437.325
Oscar 19 20 Dec 12:51:07 12:56:16 87° 256° (WSW) 13:01:29 437.125/150
PCSat 20 Dec 12:51:46 12:55:25 19° 106° (ESE) 12:59:05 145.827
Gurwin Techsat 1B 20 Dec 12:59:48 13:04:22 30° 65° (ENE) 13:08:56 435.225
BEESAT 20 Dec 13:05:03 13:09:13 29° 95° (E) 13:13:21 436.000
ITAMSAT 1 20 Dec 13:06:13 13:11:14 52° 70° (ENE) 13:16:16 435.822/435.867
AO-7 20 Dec 13:07:41 13:12:58 19° 44° (NE) 13:18:16 29.400- 29.500
HORYU 2 20 Dec 13:10:51 13:13:03 14° 59° (ENE) 13:15:15 437.375
ISS 20 Dec 13:20:45 13:23:17 21° 136° (SE) 13:25:50 145.825
ESTCUBE 1 20 Dec 13:23:21 13:23:59 10° 303° (WNW) 13:24:37 437.505/2401.250
BEESAT 3 20 Dec 13:30:58 13:35:00 60° 121° (ESE) 13:39:07 437.485
AIST 2 20 Dec 13:36:19 13:40:02 30° 115° (ESE) 13:43:47 435.215
TISAT 1 20 Dec 13:41:03 13:44:07 20° 296° (WNW) 13:47:11 437.305
SPROUT 20 Dec 13:43:12 13:46:23 20° 296° (WNW) 13:49:33 437.525
YUBILEINY 20 Dec 13:54:19 13:55:50 11° 291° (WNW) 13:57:20 435.215
RS-15 20 Dec 13:55:42 14:06:13 51° 320° (NW) 14:16:56 29.354- 29.394
AUBIESAT-1 20 Dec 14:09:37 14:13:47 40° 102° (ESE) 14:17:34 437.475
BEESAT 2 20 Dec 14:10:32 14:14:38 63° 308° (NW) 14:18:48 435.950
STARS 20 Dec 14:11:31 14:14:48 20° 93° (E) 14:18:03 437.465
KKS-1 20 Dec 14:14:02 14:18:00 31° 96° (E) 14:21:58 437.445
SWISSCUBE 20 Dec 14:17:26 14:22:05 53° 289° (WNW) 14:26:42 437.505
ITUPSAT 1 20 Dec 14:17:44 14:22:26 58° 288° (WNW) 14:27:06 437.325
PCSat 20 Dec 14:32:51 14:38:15 70° 304° (NW) 14:43:42 145.827
Oscar 19 20 Dec 14:34:50 14:36:22 11° 273° (W) 14:37:55 437.125/150
M-CUBED/EXP-1 PRIME 20 Dec 14:34:53 14:39:22 84° 108° (ESE) 14:43:25 437.505
Gurwin Techsat 1B 20 Dec 14:39:13 14:44:11 40° 262° (W) 14:49:11 435.225
BEESAT 20 Dec 14:42:48 14:47:05 34° 293° (WNW) 14:51:20 436.000
HORYU 2 20 Dec 14:44:39 14:49:06 76° 257° (WSW) 14:53:38 437.375
ITAMSAT 1 20 Dec 14:47:06 14:51:01 22° 268° (W) 14:54:58 435.822/435.867
JAS-2 20 Dec 14:53:09 14:58:57 26° 60° (ENE) 15:04:20 435.910
AO-7 20 Dec 14:56:04 15:04:18 69° 66° (ENE) 15:12:36 29.400- 29.500
ISS 20 Dec 14:56:20 14:59:37 65° 334° (NNW) 15:02:54 145.825
BEESAT 3 20 Dec 15:10:26 15:13:33 20° 321° (NW) 15:16:43 437.485
AIST 2 20 Dec 15:14:40 15:18:35 35° 314° (NW) 15:22:34 435.215
AUBIESAT-1 20 Dec 15:45:01 15:48:28 23° 302° (WNW) 15:51:41 437.475
STARS 20 Dec 15:47:15 15:51:28 44° 290° (WNW) 15:55:41 437.465
KKS-1 20 Dec 15:50:44 15:54:35 29° 293° (WNW) 15:58:26 437.445
GONETS M04 20 Dec 15:50:50 15:59:00 40° 70° (ENE) 16:07:03
BEESAT 2 20 Dec 15:51:51 15:53:44 13° 329° (NNW) 15:55:38 435.950
AIST 1 20 Dec 15:53:20 15:57:01 27° 89° (E) 16:00:42
Cubesat XI-IV 20 Dec 16:01:55 16:05:01 16° 57° (ENE) 16:08:07 437.490
M-CUBED/EXP-1 PRIME 20 Dec 16:11:34 16:13:37 13° 308° (NW) 16:15:37 437.505
RS-15 20 Dec 16:12:57 16:21:58 28° 353° (N) 16:31:12 29.354- 29.394
PCSat 20 Dec 16:19:16 16:22:41 17° 326° (NW) 16:26:07 145.827
CUTE-I 20 Dec 16:33:34 16:38:00 28° 63° (ENE) 16:42:27 437.470
ISS 20 Dec 16:33:45 16:36:37 26° 353° (N) 16:39:28 145.825
JAS-2 20 Dec 16:35:47 16:43:26 76° 257° (WSW) 16:50:25 435.910
AO-7 20 Dec 16:50:43 16:57:41 29° 266° (W) 17:04:44 29.400- 29.500
MOZHAYETS 4 20 Dec 16:57:58 17:02:33 55° 100° (E) 17:07:03
MaSat-1 20 Dec 17:28:53 17:30:45 20° 56° (NE) 17:32:41 437.345
AIST 1 20 Dec 17:30:48 17:34:37 29° 287° (WNW) 17:38:26
Cubesat XI-IV 20 Dec 17:39:04 17:44:25 84° 256° (WSW) 17:49:46 437.490
PRISM 20 Dec 17:46:21 17:49:49 25° 95° (E) 17:53:14 437.425
GONETS M04 20 Dec 17:47:41 17:56:00 50° 271° (W) 18:04:14
ISS 20 Dec 18:10:48 18:13:49 32° 14° (NNE) 18:16:48 145.825
CUTE-I 20 Dec 18:12:48 18:17:52 44° 261° (W) 18:22:57 437.470
CUBESAT XI-V 20 Dec 18:20:52 18:24:58 31° 95° (E) 18:29:01 437.345
JAS-2 20 Dec 18:25:23 18:29:19 15° 274° (W) 18:33:08 435.910
STRAND 1 20 Dec 18:28:03 18:32:34 31° 96° (E) 18:37:03 437.568
RS-15 20 Dec 18:28:33 18:38:35 36° 27° (NNE) 18:48:57 29.354- 29.394
HO-68 20 Dec 18:34:50 18:40:24 25° 55° (NE) 18:45:59 435.675
MOZHAYETS 4 20 Dec 18:36:12 18:39:21 18° 298° (WNW) 18:42:29
DANDE 20 Dec 18:46:05 18:51:09 19° 61° (ENE) 18:56:42 436.750
MaSat-1 20 Dec 19:02:48 19:03:53 12° 251° (WSW) 19:05:00 437.345
DOVE 4 20 Dec 19:11:18 19:12:29 11° 59° (ENE) 19:13:41 437.250
AAUSAT CUBESAT 2 20 Dec 19:15:31 19:17:47 14° 61° (ENE) 19:20:03 437.432
PRISM 20 Dec 19:21:41 19:25:21 30° 292° (WNW) 19:28:59 437.425
Cubesat XI-IV 20 Dec 19:23:40 19:25:18 11° 273° (W) 19:26:56 437.490
CANX-2 20 Dec 19:27:11 19:30:54 30° 68° (ENE) 19:34:39 2200.000
CINEMA 3 20 Dec 19:36:23 19:38:10 13° 59° (ENE) 19:39:59 145.822/145.860
CUSAT 1 20 Dec 19:36:42 19:43:50 43° 71° (ENE) 19:51:47 437.405
ISS 20 Dec 19:47:20 19:50:36 69° 213° (SSW) 19:53:51 145.825
COMPASS 1 20 Dec 19:48:58 19:52:46 33° 69° (ENE) 19:56:37 437.405
BRITE-PL 20 Dec 19:53:33 19:57:36 54° 73° (ENE) 20:01:40 437.365/2234.400
SEEDS 20 Dec 19:54:12 19:58:15 45° 71° (ENE) 20:02:20 437.485
CUTE 1.7 + AOD 2 20 Dec 19:57:27 20:01:38 56° 73° (ENE) 20:05:51 437.475
CUBESAT XI-V 20 Dec 19:58:21 20:02:21 30° 293° (WNW) 20:06:20 437.345
UWE-3 20 Dec 19:58:33 20:00:03 12° 59° (ENE) 20:01:33 435.000/436.395/437.385
DELFI C3 20 Dec 20:06:31 20:09:33 20° 65° (ENE) 20:12:36 145.870
STRAND 1 20 Dec 20:07:09 20:11:46 36° 293° (WNW) 20:16:22 437.568
BEESAT 3 20 Dec 20:11:56 20:14:08 14° 33° (NNE) 20:16:19 437.485
DX 1 20 Dec 20:12:06 20:15:34 24° 65° (ENE) 20:19:02 434.975-435.025
SO-50 20 Dec 20:17:20 20:20:36 20° 111° (ESE) 20:23:57 436.795
GOMX 1 20 Dec 20:20:08 20:24:16 75° 75° (ENE) 20:28:28 467.674
HO-68 20 Dec 20:20:15 20:27:26 76° 255° (WSW) 20:34:39 435.675
DANDE 20 Dec 20:28:02 20:35:35 76° 78° (ENE) 20:44:16 436.750
HUMSAT D 20 Dec 20:31:27 20:33:20 13° 60° (ENE) 20:35:13 437.325/437.525
Oscar 11 20 Dec 20:33:47 20:37:56 46° 71° (ENE) 20:42:07 145.826/435.025
RS-15 20 Dec 20:41:21 20:52:39 87° 55° (NE) 21:04:28 29.354- 29.394
UKube-1 20 Dec 20:42:21 20:46:29 45° 70° (ENE) 20:50:38 .
DOVE 4 20 Dec 20:45:29 20:49:37 79° 257° (WSW) 20:53:52 437.250
AAUSAT CUBESAT 2 20 Dec 20:48:46 20:52:57 63° 259° (W) 20:57:10 437.432
BEESAT 2 20 Dec 20:51:08 20:54:30 23° 41° (NE) 20:57:50 435.950
CUBEBUG 2 20 Dec 20:53:50 20:57:50 47° 71° (ENE) 21:01:58 437.445
CANX-2 20 Dec 21:03:10 21:06:49 27° 265° (W) 21:10:31 2200.000
ZACube-1 20 Dec 21:04:21 21:08:20 44° 71° (ENE) 21:12:25 437.345
VELOX 1 20 Dec 21:06:32 21:10:21 29° 67° (ENE) 21:14:11 145.980
CINEMA 3 20 Dec 21:10:38 21:14:47 71° 258° (WSW) 21:19:04 145.822/145.860
ESTCUBE 1 20 Dec 21:10:39 21:13:13 15° 60° (ENE) 21:15:46 437.505/2401.250
CUSAT 1 20 Dec 21:19:44 21:27:01 50° 267° (W) 21:35:05 437.405
COMPASS 1 20 Dec 21:25:09 21:28:33 24° 266° (W) 21:32:00 437.405
UNISAT 6 20 Dec 21:29:21 21:30:14 10° 87° (E) 21:31:06 437.425
FUNcube-1 20 Dec 21:30:52 21:35:03 85° 76° (ENE) 21:39:21 145.935
SEEDS 20 Dec 21:31:23 21:34:18 18° 269° (W) 21:37:15 437.485
UWE-3 20 Dec 21:31:45 21:35:56 80° 257° (WSW) 21:40:15 435.000/436.395/437.385
BRITE-PL 20 Dec 21:34:29 21:36:33 13° 270° (W) 21:38:36 437.365/2234.400
CUTE 1.7 + AOD 2 20 Dec 21:35:32 21:37:55 15° 270° (W) 21:40:20 437.475
PCSat 20 Dec 21:35:51 21:40:30 28° 44° (NE) 21:45:08 145.827
DELFI C3 20 Dec 21:40:42 21:44:34 39° 262° (W) 21:48:28 145.870
50 SAT 20 Dec 21:41:59 21:45:54 53° 73° (ENE) 21:49:52 437.505
DX 1 20 Dec 21:47:37 21:51:37 36° 262° (W) 21:55:39 434.975-435.025
BEESAT 3 20 Dec 21:48:53 21:53:05 72° 54° (NE) 21:57:12 437.485
AISAT 20 Dec 21:49:03 21:53:28 80° 75° (ENE) 21:57:54 437.250
POLYITAN 1 20 Dec 21:51:52 21:52:07 10° 88° (E) 21:52:23 437.675
NANOSAT C BR1 20 Dec 21:53:35 21:54:18 10° 88° (E) 21:55:02 145.865
CUBEBUG 1 20 Dec 21:55:18 21:59:16 35° 69° (ENE) 22:03:13 437.445
AIST 2 20 Dec 21:56:01 22:00:06 40° 47° (NE) 22:04:08 435.215
SO-50 20 Dec 21:56:14 22:00:43 57° 310° (NW) 22:05:23 436.795
ANTELSAT 20 Dec 21:58:57 22:02:35 22° 93° (E) 22:06:14 437.575/2403.000
HUMSAT D 20 Dec 22:04:27 22:08:34 69° 258° (WSW) 22:12:46 437.325/437.525
QB50P1 20 Dec 22:06:27 22:08:55 15° 91° (E) 22:11:24 145.935-145.965
Oscar 11 20 Dec 22:11:22 22:14:21 18° 268° (W) 22:17:21 145.826/435.025
DANDE 20 Dec 22:12:28 22:18:35 27° 274° (W) 22:25:20 436.750
HO-68 20 Dec 22:12:49 22:16:17 14° 274° (W) 22:19:47 435.675
UKube-1 20 Dec 22:19:51 22:22:52 18° 267° (W) 22:25:55 .
BEESAT 2 20 Dec 22:28:56 22:33:02 52° 240° (WSW) 22:37:03 435.950
CUBEBUG 2 20 Dec 22:32:08 22:34:51 17° 269° (W) 22:37:37 437.445
TIGRISAT 20 Dec 22:33:48 22:38:20 46° 99° (E) 22:42:52 435.000
POPSAT HIP 1 20 Dec 22:34:11 22:37:55 29° 96° (E) 22:41:38 437.405
ZACube-1 20 Dec 22:42:08 22:44:59 18° 269° (W) 22:47:53 437.345
VELOX 1 20 Dec 22:43:01 22:46:53 30° 264° (W) 22:50:47 145.980
ESTCUBE 1 20 Dec 22:45:02 22:49:33 69° 258° (WSW) 22:54:05 437.505/2401.250
RS-15 20 Dec 22:54:52 23:03:45 28° 257° (WSW) 23:12:57 29.354- 29.394
TISAT 1 20 Dec 22:59:10 23:03:08 42° 70° (ENE) 23:07:06 437.305
YUBILEINY 20 Dec 23:00:06 23:07:45 36° 84° (E) 23:15:23 435.215
BUGSAT 1 20 Dec 23:00:29 23:04:22 43° 99° (E) 23:08:15 437.445
DUCHIFAT 1 20 Dec 23:01:49 23:06:01 57° 101° (E) 23:10:13 145.980
SPROUT 20 Dec 23:02:46 23:06:48 42° 71° (ENE) 23:10:51 437.525
UNISAT 6 20 Dec 23:02:55 23:07:40 90° 105° (ESE) 23:12:24 437.425
QB50P2 20 Dec 23:15:25 23:19:43 82° 103° (ESE) 23:24:00 145.880/145.840
PCSat 20 Dec 23:18:56 23:24:15 56° 244° (WSW) 23:29:32 145.827
50 SAT 20 Dec 23:19:24 23:21:28 14° 270° (W) 23:23:33 437.505
POLYITAN 1 20 Dec 23:24:19 23:28:37 81° 285° (WNW) 23:32:55 437.675
NANOSAT C BR1 20 Dec 23:26:27 23:30:43 78° 285° (WNW) 23:34:58 145.865
AUBIESAT-1 20 Dec 23:27:58 23:30:12 13° 52° (NE) 23:32:26 437.475
BEESAT 3 20 Dec 23:28:48 23:30:41 13° 251° (WSW) 23:32:33 437.485
AISAT 20 Dec 23:29:41 23:30:40 11° 272° (W) 23:31:38 437.250
CUBEBUG 1 20 Dec 23:32:11 23:35:42 24° 266° (W) 23:39:15 437.445
AIST 2 20 Dec 23:35:00 23:38:33 25° 246° (WSW) 23:42:02 435.215
ANTELSAT 20 Dec 23:35:05 23:39:34 45° 290° (WNW) 23:44:04 437.575/2403.000
SO-50 20 Dec 23:39:51 23:42:19 14° 332° (NNW) 23:44:49 436.795
QB50P1 20 Dec 23:40:59 23:45:09 54° 288° (WNW) 23:49:18 145.935-145.965
SWISSCUBE 20 Dec 23:49:08 23:53:11 28° 65° (ENE) 23:57:14 437.505
ITUPSAT 1 20 Dec 23:49:47 23:53:44 26° 64° (ENE) 23:57:42 437.325
M-CUBED/EXP-1 PRIME 20 Dec 23:51:53 23:55:37 22° 57° (ENE) 23:59:22 437.505
POPSAT HIP 1 21 Dec 00:10:07 00:13:45 28° 293° (WNW) 00:17:24 437.405
TIGRISAT 21 Dec 00:11:11 00:14:47 22° 296° (WNW) 00:18:25 435.000
BEESAT 21 Dec 00:13:32 00:18:02 43° 69° (ENE) 00:22:34 436.000
TISAT 1 21 Dec 00:36:11 00:39:09 19° 267° (W) 00:42:08 437.305
BUGSAT 1 21 Dec 00:36:49 00:39:35 18° 296° (WNW) 00:42:21 437.445
DUCHIFAT 1 21 Dec 00:38:54 00:41:27 16° 298° (WNW) 00:44:00 145.980
SPROUT 21 Dec 00:40:02 00:43:05 19° 268° (W) 00:46:10 437.525
UNISAT 6 21 Dec 00:41:46 00:43:45 13° 302° (WNW) 00:45:43 437.425
O/OREOS (USA 219) 21 Dec 00:49:27 00:53:53 74° 112° (ESE) 00:58:21 437.305
QB50P2 21 Dec 00:53:32 00:55:00 12° 301° (WNW) 00:56:29 145.880/145.840
YUBILEINY 21 Dec 00:55:40 01:04:11 55° 285° (WNW) 01:12:44 435.215
AUBIESAT-1 21 Dec 00:59:31 01:04:21 79° 69° (ENE) 01:09:16 437.475
Oscar 19 21 Dec 01:01:03 01:05:33 29° 95° (E) 01:10:01 437.125/150
STARS 21 Dec 01:10:54 01:14:22 23° 65° (ENE) 01:17:51 437.465
KKS-1 21 Dec 01:14:22 01:18:25 36° 69° (ENE) 01:22:29 437.445
ITAMSAT 1 21 Dec 01:18:18 01:21:21 16° 90° (E) 01:24:22 435.822/435.867
M-CUBED/EXP-1 PRIME 21 Dec 01:25:27 01:30:13 56° 255° (WSW) 01:35:05 437.505
SWISSCUBE 21 Dec 01:26:29 01:30:54 37° 263° (W) 01:35:21 437.505
ITUPSAT 1 21 Dec 01:26:56 01:31:26 40° 262° (W) 01:35:58 437.325
BEESAT 21 Dec 01:52:15 01:56:03 23° 266° (W) 01:59:53 436.000
O/OREOS (USA 219) 21 Dec 02:31:13 02:33:50 15° 311° (NW) 02:36:29 437.305
HORYU 2 21 Dec 02:35:10 02:38:19 18° 92° (E) 02:41:27 437.375
VERMONT LUNAR 21 Dec 02:37:00 02:38:46 13° 152° (SSE) 02:40:32 437.305
AUBIESAT-1 21 Dec 02:37:14 02:39:48 14° 266° (W) 02:42:23 437.475
Oscar 19 21 Dec 02:40:09 02:44:58 40° 292° (WNW) 02:49:47 437.125/150
STARS 21 Dec 02:46:36 02:50:39 37° 262° (W) 02:54:46 437.465
KKS-1 21 Dec 02:51:34 02:55:09 24° 266° (W) 02:58:45 437.445
PHONESAT 2.4 21 Dec 02:52:33 02:54:01 12° 151° (SSE) 02:55:30 2401.200-2431.200
Gurwin Techsat 1B 21 Dec 02:52:50 02:58:09 70° 102° (ESE) 03:03:26 435.225
ITAMSAT 1 21 Dec 02:56:12 03:01:22 72° 287° (WNW) 03:06:31 435.822/435.867
AO-7 21 Dec 02:56:54 03:02:21 19° 89° (E) 03:07:45 29.400- 29.500
YUBILEINY 21 Dec 03:00:16 03:03:25 12° 310° (NW) 03:06:34 435.215
SO-50 21 Dec 03:06:37 03:08:04 11° 23° (NNE) 03:09:32 436.795
AIST 1 21 Dec 03:35:17 03:39:36 86° 81° (E) 03:43:51
JAS-2 21 Dec 03:47:40 03:48:45 11° 83° (E) 03:49:49 435.910
MOZHAYETS 4 21 Dec 04:01:48 04:06:24 66° 74° (ENE) 04:11:02
HORYU 2 21 Dec 04:10:53 04:15:15 49° 289° (WNW) 04:19:36 437.375
VERMONT LUNAR 21 Dec 04:13:17 04:16:28 32° 169° (SSE) 04:19:39 437.305
PHONESAT 2.4 21 Dec 04:28:49 04:32:03 31° 167° (SSE) 04:35:17 2401.200-2431.200
Gurwin Techsat 1B 21 Dec 04:33:59 04:37:33 19° 301° (WNW) 04:41:08 435.225
ITAMSAT 1 21 Dec 04:38:23 04:39:57 11° 306° (NW) 04:41:31 435.822/435.867
PRISM 21 Dec 04:39:10 04:42:42 26° 66° (ENE) 04:46:14 437.425
SO-50 21 Dec 04:45:29 04:50:01 37° 45° (NE) 04:54:34 436.795
AO-7 21 Dec 04:47:52 04:56:19 84° 108° (ESE) 05:04:41 29.400- 29.500
GONETS M04 21 Dec 04:54:29 05:02:35 43° 86° (E) 05:10:41
CUBESAT XI-V 21 Dec 05:26:17 05:30:36 39° 69° (ENE) 05:34:55 437.345
JAS-2 21 Dec 05:29:14 05:35:00 84° 104° (ESE) 05:40:15 435.910
MOZHAYETS 4 21 Dec 05:41:32 05:44:05 15° 271° (W) 05:46:38
STRAND 1 21 Dec 05:45:49 05:50:48 56° 71° (ENE) 05:55:47 437.568
VERMONT LUNAR 21 Dec 05:51:08 05:54:26 37° 186° (S) 05:57:43 437.305
Cubesat XI-IV 21 Dec 05:54:38 05:59:24 33° 96° (E) 06:04:10 437.490
PHONESAT 2.4 21 Dec 06:06:58 06:10:22 39° 184° (S) 06:13:46 2401.200-2431.200
PRISM 21 Dec 06:14:23 06:18:08 31° 263° (W) 06:21:54 437.425
SO-50 21 Dec 06:26:06 06:30:34 36° 243° (WSW) 06:35:03 436.795
CUTE-I 21 Dec 06:27:28 06:32:45 63° 102° (ESE) 06:38:01 437.470
AO-7 21 Dec 06:41:38 06:48:12 27° 309° (NW) 06:54:46 29.400- 29.500
GONETS M04 21 Dec 06:50:52 06:59:18 48° 288° (WNW) 07:07:47
CUBESAT XI-V 21 Dec 07:04:21 07:08:09 24° 267° (W) 07:11:57 437.345
JAS-2 21 Dec 07:15:57 07:19:13 16° 306° (NW) 07:22:21 435.910
STRAND 1 21 Dec 07:26:39 07:30:20 20° 268° (W) 07:34:01 437.568
VERMONT LUNAR 21 Dec 07:29:39 07:32:16 19° 202° (SSW) 07:34:52 437.305
Cubesat XI-IV 21 Dec 07:34:41 07:39:30 36° 294° (WNW) 07:44:19 437.490
PHONESAT 2.4 21 Dec 07:45:44 07:48:36 22° 200° (SSW) 07:51:28 2401.200-2431.200
HO-68 21 Dec 07:47:09 07:51:53 19° 89° (E) 07:56:34 435.675
BRITE-PL 21 Dec 07:56:13 07:59:12 16° 91° (E) 08:02:19 437.365/2234.400
CUTE-I 21 Dec 08:08:32 08:12:21 21° 300° (WNW) 08:16:11 437.470
GOMX 1 21 Dec 08:19:43 08:23:17 20° 93° (E) 08:26:59 467.674
MaSat-1 21 Dec 08:21:30 08:23:19 21° 112° (ESE) 08:25:06 437.345
UNISAT 6 21 Dec 08:30:30 08:32:24 13° 58° (ENE) 08:34:19 437.425
AAUSAT CUBESAT 2 21 Dec 08:31:16 08:34:15 18° 92° (E) 08:37:12 437.432
DOVE 4 21 Dec 08:42:16 08:46:14 25° 94° (E) 08:50:21 437.250
CANX-2 21 Dec 08:46:03 08:50:12 44° 98° (E) 08:54:19 2200.000
POLYITAN 1 21 Dec 08:47:07 08:48:30 11° 59° (ENE) 08:49:53 437.675
NANOSAT C BR1 21 Dec 08:48:42 08:50:11 12° 59° (ENE) 08:51:40 145.865
CUSAT 1 21 Dec 08:52:13 08:55:23 24° 84° (E) 08:59:20 437.405
GONETS M04 21 Dec 08:57:52 08:58:56 10° 313° (NW) 09:00:00
ANTELSAT 21 Dec 09:00:31 09:04:03 24° 65° (ENE) 09:07:40 437.575/2403.000
QB50P1 21 Dec 09:01:59 09:04:33 16° 62° (ENE) 09:07:07 145.935-145.965
CINEMA 3 21 Dec 09:03:32 09:07:26 25° 94° (E) 09:11:26 145.822/145.860
COMPASS 1 21 Dec 09:06:11 09:10:20 48° 99° (E) 09:14:26 437.405
